Regional Weather Roundup
Issued by NWS

Home | Current Version | Previous Version | Text Only | Print | Product List | Glossary On
Versions: 1 2 3 4 5 6 7 8 9 10 11 12 13 14 15 16 17 18 19 20 21 22 23 24 25 26 27 28 29 30 31 32 33 34 35 36 37 38 39 40 41 42 43 44 45 46 47 48 49 50
000
ASUS46 KSTO 240715
RWRCA

NORTHERN AND CENTRAL CA REGIONAL WEATHER ROUNDUP
NATIONAL WEATHER SERVICE SACRAMENTO CA
1200 AM PDT FRI MAR 24 2017

NOTE: FAIR INDICATES FEW OR NO CLOUDS BELOW 12,000 FEET WITH NO
SIGNIFICANT WEATHER AND/OR OBSTRUCTIONS TO VISIBILITY.

CAZ001-003-240800-
NORTHWEST AREA

CITY           SKY/WX    TMP DP  RH WIND       PRES   REMARKS
CRESCENT CITY  LGT RAIN  52  44  74 S28G40    29.92R
UKIAH          LGT RAIN  48  45  89 SE6       30.18S
$$

CAZ006-505>513-240800-
BAY AREA

CITY           SKY/WX    TMP DP  RH WIND       PRES   REMARKS
SANTA ROSA     CLOUDY    51  46  83 E3        30.19S
SAN RAFAEL     N/A       52  MM  MM MISG
NAPA           LGT RAIN  53  48  83 CALM      30.21F
CONCORD        CLOUDY    54  45  71 S6        30.22S
OAKLAND CITY   N/A      MM  MM  MM MISG
OAKLAND        MOCLDY    56  46  69 SE12      30.21F
SAN FRAN CITY  N/A       54  MM  66 MISG
SAN FRAN ARPT  CLOUDY    55  42  61 VRB5      30.21F
LIVERMORE      CLOUDY    51  43  74 CALM      30.22S
HAYWARD        CLOUDY    55  41  59 SE3       30.22S
REDWOOD CITY   N/A       53  MM  72 MISG
MOFFETT ARPT   CLOUDY    54  43  66 CALM      30.23F
SAN JOSE ARPT  MOCLDY    53  44  71 SE9       30.23S
$$
CAZ034-037-514>518-240800-
CENTRAL COAST

CITY           SKY/WX    TMP DP  RH WIND       PRES   REMARKS
WATSONVILLE    CLOUDY    49  47  93 NW3       30.26S
SALINAS        CLEAR     48  45  89 CALM      30.25S
MONTEREY       CLOUDY    49  44  83 E8        30.24F
SAN LUIS OBISP CLEAR     51  45  79 CALM      30.24S
SANTA MARIA    CLEAR     47  45  93 W3        30.25S
$$
CAZ015-016-240800-
NORTHERN SACRAMENTO VALLEY

CITY           SKY/WX    TMP DP  RH WIND       PRES   REMARKS
REDDING        LGT RAIN  53  48  83 S9        30.15R
RED BLUFF      CLOUDY    54  46  74 S10       30.16R
OROVILLE       CLOUDY    56  46  69 SE8       30.20F
$$
CAZ016>018-240800-
SOUTHERN SACRAMENTO VALLEY

CITY           SKY/WX    TMP DP  RH WIND       PRES   REMARKS
AUBURN         MOCLDY    50  45  81 SE3       30.21F
BEALE AFB      CLOUDY    54  47  76 SE6       30.19S
LINCOLN        CLOUDY    54  43  66 SE7       30.19F
MARYSVILLE     CLOUDY    54  48  80 S6        30.20F
SAC INTL ARPT  CLOUDY    53  46  77 S7        30.20R
MATHER AIRPORT NOT AVBL
DOWNTOWN SAC   N/A       54  MM  MM MISG
SAC EXEC ARPT  CLOUDY    53  46  77 SW7       30.22S
VACAVILLE      CLOUDY    54  42  64 SW12      30.21F
TRAVIS AFB     CLOUDY    52  46  79 SW9       30.19F
$$
CAZ019>021-240800-
SAN JOAQUIN VALLEY

CITY           SKY/WX    TMP DP  RH WIND       PRES   REMARKS
STOCKTON       CLOUDY    53  46  77 CALM      30.22R
MODESTO        MOCLDY    55  43  63 CALM      30.22S
MERCED         CLEAR     48  45  89 CALM      30.23S
LEMOORE        PTCLDY    45  40  82 S7        30.25S
FRESNO         PTCLDY    51  45  79 SE7       30.25S
HANFORD        CLEAR     46  45  96 SE3       30.25S
PORTERVILLE    CLEAR     46  44  93 SE6       30.26R
BAKERSFIELD    CLEAR     52  43  71 E5        30.25S
$$
CAZ011-012-071-240800-
NORTHERN MOUNTAINS

CITY           SKY/WX    TMP DP  RH WIND       PRES   REMARKS
YREKA          CLOUDY    47  34  60 S23G32    30.00F
MOUNT SHASTA   RAIN      39  37  92 SE8       30.09S FOG     WCI  33
ALTURAS        CLOUDY    40  31  70 SW7       30.08F
$$
CAZ011-012-071-240800-
SIERRA NEVADA MTNS

CITY           SKY/WX    TMP DP  RH WIND       PRES   REMARKS
BLUE CANYON    CLOUDY    35  35 100 VRB5      30.20S WCI  31
TRUCKEE        MOCLDY    34  23  64 SW3       30.17F
TAHOE VLY ARPT MOCLDY    38  19  46 S10       30.17R WCI  31
MAMMOTH LAKES  FAIR      28  21  75 CALM      30.21S
$$




USA.gov is the U.S. government's official web portal to all federal, state and local government web resources and services.